Location: Eaton
(41.3139°N, 82.0207°W)
Time: 07:35:18
(UTC+00:00)

Cosmos 2285 Rocket - Pass Details

Date: 03 November 2021
Orbit: 970 x 1000 km, 74.0° (Epoch: 01 December)

Event Time Altitude Azimuth Distance (km) Brightness Sun altitude
Rises 10:28:49 0° 347° (NNW) 3,728 6.9 -17.9°
Reaches altitude 10° 10:31:41 10° 357° (N) 2,777 6.3 -17.4°
Maximum altitude 10:37:26 33° 60° (ENE) 1,626 5.7 -16.3°
Drops below altitude 10° 10:43:07 10° 123° (ESE) 2,762 7.4 -15.3°
Sets 10:45:57 0° 133° (SE) 3,705 8.0 -14.7°
